| time (UTC) | temp F | wind direction | speed MPH | gust MPH | rain 1hr in | rain 24hr in | rain mn in | humidity % | barometer mb |
| 20260905140040 | 44 | 148 | 1.0 | 2.0 | 0.00 | 0.00 | 0.00 | 97 | 1014.1 |
| 20260905134543 | 43 | 148 | 0.0 | 0.0 | 0.00 | 0.00 | 0.00 | 97 | 1014.0 |
| 20260905133035 | 43 | 148 | 0.0 | 1.0 | 0.00 | 0.00 | 0.00 | 97 | 1013.9 |
| 20260905131535 | 43 | 148 | 0.0 | 1.0 | 0.00 | 0.00 | 0.00 | 97 | 1013.5 |
| 20260905130033 | 43 | 148 | 0.0 | 1.0 | 0.00 | 0.00 | 0.00 | 97 | 1013.6 |
| 20260905124543 | 43 | 148 | 0.0 | 1.0 | 0.00 | 0.00 | 0.00 | 97 | 1013.2 |
| 20260905123034 | 43 | 148 | 0.0 | 0.0 | 0.00 | 0.00 | 0.00 | 97 | 1013.6 |
| 20260905121532 | 43 | 148 | 0.0 | 4.0 | 0.00 | 0.00 | 0.00 | 97 | 1013.2 |
| 20260905120033 | 43 | 151 | 0.0 | 2.0 | 0.00 | 0.00 | 0.00 | 97 | 1012.9 |
| 20260905114531 | 43 | 151 | 0.0 | 1.0 | 0.00 | 0.00 | 0.00 | 97 | 1013.7 |
| 20260905113030 | 43 | 151 | 0.0 | 1.0 | 0.00 | 0.00 | 0.00 | 97 | 1013.1 |
| 20260905111529 | 43 | 151 | 0.0 | 1.0 | 0.00 | 0.00 | 0.00 | 97 | 1013.4 |
| 20260905110028 | 43 | 151 | 0.0 | 0.0 | 0.00 | 0.00 | 0.00 | 96 | 1012.9 |
| 20260905104535 | 43 | 152 | 0.0 | 1.0 | 0.00 | 0.01 | 0.00 | 96 | 1012.5 |
| 20260905103032 | 42 | 152 | 0.0 | 0.0 | 0.00 | 0.01 | 0.00 | 96 | 1012.3 |
| 20260905101526 | 43 | 151 | 0.0 | 1.0 | 0.00 | 0.01 | 0.00 | 96 | 1012.4 |
| 20260905100024 | 43 | 146 | 0.0 | 1.0 | 0.00 | 0.01 | 0.00 | 96 | 1012.3 |
| 20260905094523 | 43 | 146 | 0.0 | 2.0 | 0.00 | 0.01 | 0.00 | 95 | 1012.5 |
| 20260905093021 | 44 | 158 | 3.0 | 6.0 | 0.00 | 0.01 | 0.00 | 95 | 1013.1 |
| 20260905091519 | 44 | 344 | 0.0 | 5.0 | 0.00 | 0.01 | 0.00 | 95 | 1011.2 |
| 20260905090021 | 44 | 140 | 0.0 | 1.0 | 0.00 | 0.01 | 0.00 | 96 | 1011.6 |
| 20260905084522 | 44 | 140 | 0.0 | 1.0 | 0.00 | 0.01 | 0.00 | 96 | 1011.9 |
| 20260905083018 | 44 | 140 | 0.0 | 2.0 | 0.00 | 0.01 | 0.00 | 96 | 1011.4 |
| 20260905081517 | 44 | 130 | 0.0 | 1.0 | 0.00 | 0.01 | 0.00 | 96 | 1011.3 |
| 20260905080032 | 44 | 130 | 0.0 | 1.0 | 0.00 | 0.01 | 0.00 | 96 | 1011.3 |
| 20260905074516 | 44 | 15 | 0.0 | 2.0 | 0.00 | 0.01 | 0.00 | 96 | 1011.6 |
| 20260905073029 | 44 | 26 | 0.0 | 1.0 | 0.00 | 0.01 | 0.00 | 95 | 1011.4 |
| 20260905071515 | 44 | 26 | 0.0 | 1.0 | 0.00 | 0.01 | 0.00 | 95 | 1010.7 |
| 20260905070011 | 44 | 29 | 0.0 | 1.0 | 0.00 | 0.01 | 0.00 | 95 | 1011.1 |
| 20260905064513 | 44 | 29 | 0.0 | 1.0 | 0.00 | 0.01 | 0.00 | 95 | 1010.8 |
| 20260905063009 | 44 | 29 | 0.0 | 1.0 | 0.00 | 0.01 | 0.00 | 94 | 1010.4 |
| 20260905061507 | 45 | 9 | 0.0 | 1.0 | 0.00 | 0.01 | 0.00 | 95 | 1010.9 |
| 20260905060004 | 45 | 9 | 0.0 | 2.0 | 0.00 | 0.01 | 0.01 | 95 | 1010.5 |
| 20260905054505 | 45 | 159 | 0.0 | 1.0 | 0.00 | 0.01 | 0.01 | 94 | 1011.1 |
| 20260905053003 | 45 | 159 | 0.0 | 3.0 | 0.00 | 0.01 | 0.01 | 94 | 1010.8 |
| 20260905051502 | 45 | 173 | 0.0 | 0.0 | 0.00 | 0.01 | 0.01 | 94 | 1010.2 |
| 20260905050001 | 45 | 173 | 0.0 | 2.0 | 0.00 | 0.01 | 0.01 | 93 | 1010.4 |
| 20260905044503 | 45 | 173 | 0.0 | 2.0 | 0.00 | 0.01 | 0.01 | 93 | 1010.3 |
| 20260905043123 | 45 | 173 | 0.0 | 1.0 | 0.00 | 0.01 | 0.01 | 93 | 1010.6 |
| 20260905041600 | 45 | 173 | 2.0 | 4.0 | 0.00 | 0.01 | 0.01 | 92 | 1010.8 |
| 20260905040118 | 46 | 126 | 0.0 | 1.0 | 0.00 | 0.01 | 0.01 | 91 | 1010.2 |
| 20260905034601 | 46 | 126 | 0.0 | 2.0 | 0.00 | 0.01 | 0.01 | 90 | 1010.1 |
| 20260905033100 | 46 | 342 | 0.0 | 0.0 | 0.00 | 0.01 | 0.01 | 88 | 1010.5 |
| 20260905031556 | 47 | 342 | 0.0 | 3.0 | 0.00 | 0.01 | 0.01 | 88 | 1010.2 |
| 20260905030054 | 47 | 306 | 0.0 | 2.0 | 0.00 | 0.01 | 0.01 | 85 | 1010.0 |
| 20260905024554 | 47 | 315 | 0.0 | 0.0 | 0.00 | 0.01 | 0.01 | 83 | 1009.9 |
| 20260905023058 | 47 | 315 | 0.0 | 1.0 | 0.00 | 0.01 | 0.01 | 83 | 1009.6 |
| 20260905021553 | 48 | 315 | 0.0 | 1.0 | 0.00 | 0.01 | 0.01 | 81 | 1009.7 |
| 20260905020052 | 48 | 322 | 0.0 | 4.0 | 0.00 | 0.01 | 0.01 | 80 | 1009.5 |
| 20260905014551 | 50 | 315 | 0.0 | 3.0 | 0.00 | 0.01 | 0.01 | 80 | 1009.4 |
| 20260905013057 | 51 | 345 | 0.0 | 4.0 | 0.00 | 0.01 | 0.01 | 74 | 1009.7 |
| 20260905011549 | 52 | 313 | 0.0 | 3.0 | 0.00 | 0.01 | 0.01 | 74 | 1009.3 |
| 20260905010051 | 53 | 306 | 0.0 | 2.0 | 0.00 | 0.01 | 0.01 | 70 | 1009.1 |
| 20260905004545 | 54 | 319 | 2.0 | 5.0 | 0.00 | 0.01 | 0.01 | 67 | 1008.7 |
| 20260905003043 | 56 | 225 | 0.0 | 4.0 | 0.00 | 0.01 | 0.01 | 61 | 1008.3 |
| 20260905001542 | 56 | 155 | 1.0 | 9.0 | 0.00 | 0.01 | 0.01 | 60 | 1008.2 |
| 20260905000041 | 56 | 146 | 6.0 | 12.0 | 0.00 | 0.01 | 0.01 | 60 | 1007.9 |
| 20260904234545 | 56 | 140 | 8.0 | 13.0 | 0.00 | 0.01 | 0.01 | 59 | 1007.9 |
| 20260904233039 | 56 | 142 | 5.0 | 14.0 | 0.00 | 0.01 | 0.01 | 59 | 1007.7 |
| 20260904231539 | 56 | 132 | 6.0 | 13.0 | 0.00 | 0.01 | 0.01 | 60 | 1007.6 |
| 20260904230038 | 56 | 139 | 7.0 | 12.0 | 0.00 | 0.01 | 0.01 | 60 | 1007.6 |
| 20260904224542 | 56 | 159 | 6.0 | 13.0 | 0.00 | 0.01 | 0.01 | 64 | 1007.6 |
| 20260904223036 | 55 | 134 | 7.0 | 15.0 | 0.00 | 0.01 | 0.01 | 60 | 1007.7 |
| 20260904221536 | 55 | 131 | 5.0 | 13.0 | 0.00 | 0.01 | 0.01 | 64 | 1007.5 |
| 20260904220054 | 55 | 147 | 5.0 | 14.0 | 0.00 | 0.01 | 0.01 | 63 | 1007.3 |
| 20260904214538 | 56 | 147 | 10.0 | 16.0 | 0.00 | 0.01 | 0.01 | 60 | 1007.3 |
| 20260904213034 | 55 | 143 | 5.0 | 11.0 | 0.00 | 0.01 | 0.01 | 66 | 1007.0 |
| 20260904211536 | 55 | 311 | 3.0 | 5.0 | 0.00 | 0.01 | 0.01 | 63 | 1007.0 |
| 20260904210040 | 55 | 274 | 0.0 | 2.0 | 0.00 | 0.01 | 0.01 | 64 | 1007.0 |
| 20260904204530 | 54 | 281 | 0.0 | 2.0 | 0.00 | 0.01 | 0.01 | 65 | 1006.9 |
| 20260904203042 | 54 | 299 | 1.0 | 7.0 | 0.00 | 0.01 | 0.01 | 66 | 1007.1 |
| 20260904201529 | 54 | 344 | 1.0 | 4.0 | 0.00 | 0.01 | 0.01 | 66 | 1006.9 |
| 20260904200029 | 54 | 315 | 2.0 | 5.0 | 0.00 | 0.01 | 0.01 | 67 | 1007.1 |
| 20260904194528 | 54 | 344 | 0.0 | 4.0 | 0.00 | 0.01 | 0.01 | 66 | 1007.2 |
| 20260904193031 | 53 | 309 | 1.0 | 3.0 | 0.00 | 0.01 | 0.01 | 66 | 1007.3 |
| 20260904191537 | 53 | 328 | 0.0 | 4.0 | 0.00 | 0.01 | 0.01 | 68 | 1007.3 |
| 20260904190035 | 53 | 198 | 0.0 | 1.0 | 0.00 | 0.01 | 0.01 | 67 | 1007.5 |
| 20260904184530 | 52 | 157 | 1.0 | 6.0 | 0.00 | 0.01 | 0.01 | 67 | 1007.6 |
| 20260904183025 | 52 | 124 | 6.0 | 11.0 | 0.00 | 0.01 | 0.01 | 65 | 1007.7 |
| 20260904181524 | 52 | 124 | 5.0 | 10.0 | 0.00 | 0.01 | 0.01 | 67 | 1007.5 |
| 20260904180022 | 52 | 140 | 8.0 | 11.0 | 0.00 | 0.01 | 0.01 | 70 | 1007.6 |
| 20260904174522 | 52 | 171 | 5.0 | 11.0 | 0.00 | 0.01 | 0.01 | 63 | 1007.4 |
| 20260904173035 | 52 | 167 | 3.0 | 13.0 | 0.00 | 0.01 | 0.01 | 68 | 1007.2 |
| 20260904171524 | 52 | 159 | 9.0 | 14.0 | 0.00 | 0.01 | 0.01 | 66 | 1007.1 |
| 20260904170020 | 53 | 138 | 9.0 | 14.0 | 0.00 | 0.01 | 0.01 | 64 | 1006.8 |
| 20260904164518 | 53 | 131 | 3.0 | 10.0 | 0.00 | 0.01 | 0.01 | 71 | 1006.8 |
| 20260904163018 | 52 | 165 | 7.0 | 16.0 | 0.00 | 0.01 | 0.01 | 71 | 1006.9 |
| 20260904161520 | 50 | 167 | 6.0 | 13.0 | 0.00 | 0.01 | 0.01 | 76 | 1007.0 |
| 20260904160017 | 48 | 146 | 1.0 | 4.0 | 0.00 | 0.01 | 0.01 | 89 | 1006.9 |
| 20260904154522 | 47 | 170 | 0.0 | 2.0 | 0.00 | 0.01 | 0.01 | 90 | 1007.0 |
| 20260904153015 | 46 | 173 | 0.0 | 4.0 | 0.00 | 0.01 | 0.01 | 90 | 1006.8 |
| 20260904151516 | 45 | 174 | 0.0 | 2.0 | 0.00 | 0.01 | 0.01 | 93 | 1006.8 |
| 20260904150022 | 45 | 171 | 1.0 | 4.0 | 0.00 | 0.01 | 0.01 | 92 | 1006.8 |
| 20260904144513 | 44 | 147 | 0.0 | 3.0 | 0.00 | 0.01 | 0.01 | 93 | 1006.6 |
| 20260904143011 | 44 | 147 | 0.0 | 0.0 | 0.00 | 0.01 | 0.01 | 94 | 1006.5 |
| 20260904141516 | 43 | 147 | 0.0 | 2.0 | 0.00 | 0.01 | 0.01 | 93 | 1006.2 |